This is the latest recevied weather packets stored in our database for station/object W8RSN-13. If no packets are shown the sender has not sent any weather packets the latest 10 day(s).
| Time | Temp. | Humidity | Pressure | Rain* | Wind** | Luminosity | Snow |
|---|---|---|---|---|---|---|---|
| 1787657907 | 22.22° C | 54% | 1015.7 hPa | - | - | - | - |
| 1787657606 | 22.78° C | 54% | 1015.8 hPa | - | - | - | - |
| 1787657305 | 22.78° C | 54% | 1015.7 hPa | - | - | - | - |
| 1787657004 | 22.78° C | 53% | 1015.5 hPa | - | - | - | - |
| 1787656703 | 22.78° C | 52% | 1015.7 hPa | - | - | - | - |
| 1787656402 | 23.33° C | 52% | 1015.9 hPa | - | - | - | - |
| 1787656101 | 23.33° C | 52% | 1015.6 hPa | - | - | - | - |
| 1787655800 | 23.33° C | 51% | 1015.6 hPa | - | - | - | - |
| 1787655499 | 23.33° C | 52% | 1015.7 hPa | - | - | - | - |
| 1787655198 | 23.33° C | 51% | 1015.5 hPa | - | - | - | - |
| 1787654897 | 23.33° C | 51% | 1015.7 hPa | - | - | - | - |
| 1787654596 | 23.33° C | 49% | 1015.6 hPa | - | - | - | - |
| 1787654315 | 23.33° C | 51% | 1015.5 hPa | - | - | - | - |
| 1787654015 | 23.33° C | 53% | 1015.5 hPa | - | - | - | - |
| 1787653714 | 23.33° C | 52% | 1015.7 hPa | - | - | - | - |
| 1787653413 | 23.89° C | 51% | 1015.6 hPa | - | - | - | - |
| 1787653112 | 23.89° C | 50% | 1015.7 hPa | - | - | - | - |
| 1787652811 | 23.89° C | 50% | 1015.4 hPa | - | - | - | - |
| 1787652510 | 23.33° C | 51% | 1015.8 hPa | - | - | - | - |
| 1787652209 | 24.44° C | 50% | 1015.6 hPa | - | - | - | - |
| 1787651909 | 24.44° C | 48% | 1015.8 hPa | - | - | - | - |
| 1787651607 | 24.44° C | 47% | 1015.7 hPa | - | - | - | - |
| 1787651306 | 24.44° C | 48% | 1015.8 hPa | - | - | - | - |
| 1787651005 | 24.44° C | 48% | 1015.6 hPa | - | - | - | - |
| 1787650705 | 23.89° C | 49% | 1015.7 hPa | - | - | - | - |
* Rain since midnight (hover to see other rain measurements)
** Current wind speed in m/s (hover to see current wind gust speed)